sat.trackr.live / text

‹ back to catalog

STARLINK-4412

NORAD 53477 · 2022-099N

PAYLOAD ACTIVE UNKNOWN

§ Identity

Operator
Country
US
Launch date
2022-08-12
Launch site
AFWTR
Launch vehicle
Mass (kg)
RCS (m²)

Purposes: comms

External: N2YO · Heavens-Above · Gunter

§ Orbital elements

Epoch: 2026-09-06T05:10:22.217088Z

Period
87.53 min
Inclination
97.5818°
Eccentricity
0.0013050
Mean motion
16.45153952 rev/d
Perigee alt
143.6 km
Apogee alt
160.7 km
Semi-major
6,530.3 km
B*
1.8923e-4
RAAN
21.6455°
Arg perigee
313.4960°
Mean anomaly
46.5256°
Rev number
22,470

§ Raw data

STARLINK-44121 53477U 22099N   26249.21553492  .07882003  26721-5  18923-3 0  99992 53477  97.5818  21.6455 0013050 313.4960  46.5256 16.45153952224708

JSON: /api/v1/satellites/53477 · /tle

For live sub-satellite position, see the globe view (requires WebGL).

§ Visibility from observer

Set your observer location to see the next 7 days of passes ≥ 10°. The values pass through the URL so the page stays shareable.

No JS? Fill the form by hand. The geolocation button needs JavaScript.